Location: Palomar Mountain Lodge
(33.3110°N, 116.8495°W)
Time: 16:25:26
(UTC-07:00)

Meteor 2-2 Rocket - Pass Details

Date: 12 July 2018
Orbit: 852 x 929 km, 81.3° (Epoch: 17 July)

Event Time Altitude Azimuth Distance (km) Brightness Sun altitude
Rises 20:47:49 0° 353° (N) 3,456 8.1 -9.7°
Reaches altitude 10° 20:50:14 10° 354° (N) 2,525 7.3 -10.1°
Maximum altitude 20:55:59 82° 81° (E) 897 4.3 -11.1°
Drops below altitude 10° 21:01:50 10° 170° (S) 2,563 6.3 -12.0°
Enters shadow 21:02:59 - 171° (S) 3,001 6.6 -12.2°
